Location: Grajska Vas
(46.2500°N, 15.0833°E)
Time: 07:34:31
(UTC+00:00)

Daily predictions for brighter satellites

Satellite Brightness Start Highest point End
(mag) Time Altitude Azimuth Time Altitude Azimuth Time Altitude Azimuth
Cosmos 2360 Rocket 3.5 15:43:23 10° WSW 15:48:32 36° NW 15:53:44 10° NNE
NOSS 0 Rocket 4.3 15:42:56 10° S 15:48:50 47° ESE 15:54:45 10° NE
NOSS 2-1 (E) 4.4 15:44:11 10° NW 15:49:17 69° NE 15:56:29 10° SE
Cosmos 1862 3.7 15:45:54 10° N 15:49:46 42° ENE 15:53:36 10° SSE
SL-24 R/B - RUBIN 2 4.5 15:46:05 10° NNW 15:52:23 55° NE 15:57:59 10° SE
Spot 2 4.4 15:49:03 10° SSE 15:53:34 83° WSW 15:58:25 10° NNW
NOAA 12 4.3 15:49:29 10° SE 15:54:35 49° ENE 15:59:42 10° N
Cosmos 2219 Rocket 2.4 15:50:57 10° SSW 15:56:36 75° WNW 16:02:17 10° NNE
Cosmos 841 Rocket 3.9 15:52:56 10° SSW 15:58:09 69° WNW 16:03:22 10° NNE
ERS-2 3.7 15:56:19 10° NE 15:58:47 17° E 16:01:14 10° SE
Landsat 5 3.6 15:56:14 10° NNE 16:00:37 74° ESE 16:05:05 10° S
CZ-4B R/B 3.2 15:57:00 10° SSE 16:02:15 61° ENE 16:07:30 10° N
Envisat 3.0 15:57:12 10° SSE 16:02:17 90° NNE 16:07:24 10° NNW
CZ-4 R/B 3.3 16:02:53 10° ENE 16:03:42 11° ENE 16:04:32 10° NE
SMAP 3.1 15:59:47 10° SSE 16:04:20 58° ENE 16:08:56 10° N
SL-16 R/B 4.4 16:01:10 10° W 16:04:43 17° NW 16:08:16 10° N
H-2A R/B 2.0 16:00:45 10° NNE 16:04:53 62° ESE 16:09:04 10° S
Cosmos 2327 Rocket 4.5 15:59:55 10° N 16:06:02 66° E 16:12:11 10° SSE
Cosmos 2237 Rocket 2.5 16:00:45 10° S 16:06:04 46° ESE 16:11:27 10° NE
Cosmos 2074 Rocket 4.1 16:00:33 10° N 16:06:49 84° W 16:13:03 10° S
NOAA 11 4.5 16:04:04 10° SE 16:09:10 44° ENE 16:14:19 10° N
FengYun 1-2 T 4.4 16:05:33 10° SE 16:10:52 49° ENE 16:16:10 10° N
GENESIS II 4.4 16:08:42 10° NNW 16:12:34 48° NE 16:16:21 10° ESE
CREW DRAGON DEMO-1 DEB 3.7 16:11:13 10° NW 16:13:59 33° NNE 16:16:01 15° ENE
H-2A R/B 3.6 16:12:07 10° E 16:14:49 14° ENE 16:17:28 10° NNE
Cosmos 1633 Rocket 4.2 16:11:35 10° NNE 16:14:58 21° ENE 16:18:19 10° ESE
Cosmos 1939 Rocket 3.8 16:12:40 10° ESE 16:15:50 25° ENE 16:19:02 10° NNE
USA 281 3.8 16:11:14 10° ESE 16:16:58 33° NE 16:22:42 10° N
Cosmos 2369 Rocket 3.8 16:15:15 10° N 16:18:26 15° NE 16:20:20 13° ENE
Cosmos 2184 Rocket 4.4 16:12:49 10° NNW 16:19:12 72° W 16:25:30 10° S
CORIOLIS 4.1 16:14:33 10° SSE 16:19:55 71° ENE 16:25:21 10° N
Cosmos 1980 3.7 16:18:33 10° SSW 16:24:10 69° ESE 16:29:50 10° NNE
CSL-04 DEB 4.4 16:22:06 10° NNE 16:26:11 74° ESE 16:30:21 10° S
Cosmos 2221 3.5 16:23:40 10° SSW 16:27:54 50° WNW 16:32:08 10° N
Cosmos 1295 Rocket 4.4 16:22:45 10° N 16:28:56 77° E 16:35:09 10° SSE
Cosmos 1500 Rocket 4.4 16:29:19 10° NNW 16:33:36 54° W 16:37:54 10° S
Abrixas rocket 3.3 16:31:58 10° W 16:34:32 34° SSW 16:37:05 10° SE
YAOGAN 6 4.0 16:31:31 10° S 16:35:02 43° W 16:38:32 10° NNW
Cosmos 405 Rocket 4.0 16:38:08 10° NNW 16:41:51 44° W 16:45:37 10° SSW
ADEOS Rocket 4.3 16:36:08 10° N 16:43:29 54° WNW 16:50:58 10° SW
Cosmos 836 Rocket 4.5 16:38:16 10° SSW 16:43:32 71° ESE 16:48:49 10° NNE
Cosmos 2297 4.0 16:39:16 10° NNW 16:44:42 44° NE 16:50:08 10° SE
YAOGAN 1 3.5 16:44:13 23° E 16:45:10 25° ENE 16:48:43 10° N
Cosmos 389 Rocket 2.3 16:43:19 10° S 16:46:43 65° E 16:49:22 16° NNE
Cosmos 1943 Rocket 2.9 16:43:07 10° N 16:47:57 30° NE 16:50:06 23° E
Cosmos 1470 Rocket 4.4 16:46:42 10° NNE 16:50:03 26° ENE 16:50:03 26° ENE
Cosmos 44 3.9 16:46:15 10° NNW 16:51:14 41° NE 16:54:10 23° ESE
Cosmos 1933 3.6 16:47:28 10° SSE 16:51:18 44° E 16:53:49 20° NNE
YAOGAN 3 4.5 16:47:09 10° SSE 16:51:27 65° ENE 16:55:47 10° N
Cosmos 1689 Rocket 3.9 16:53:23 18° SE 16:53:23 18° SE 16:54:28 10° SSE
BREEZE-M DEB (TANK) 1.9 16:50:42 10° W 16:52:45 54° NNW 16:53:03 48° NNE
USA 215 3.2 16:47:52 19° NE 16:52:50 76° SE 16:59:23 10° SW
SL-16 R/B 2.6 16:48:41 10° S 16:53:56 41° ESE 16:56:52 23° NE
Cosmos 1867 3.8 16:49:01 10° SSW 16:54:15 52° ESE 16:57:17 25° NE
CZ-2C R/B 3.4 16:50:34 10° SE 16:55:19 39° ENE 16:59:52 10° N
COSMO-SKYMED 1 2.7 16:52:07 14° NNE 16:55:47 52° E 17:00:02 10° S
ARGOS 4.3 16:57:00 23° NE 16:57:00 23° NE 17:00:29 10° N
Okean-O 3.1 16:52:29 10° SE 16:56:34 38° ENE 17:00:41 10° N
Cosmos 2218 Rocket 4.0 16:52:46 10° N 16:58:50 56° ENE 17:04:51 10° SSE
Cosmos 1818 4.5 16:56:02 10° NW 17:01:19 51° WSW 17:06:34 10° SSE
PSLV R/B 4.3 17:00:30 35° ENE 17:01:21 40° E 17:05:10 10° S
Cosmos 1606 2.9 17:00:27 10° SSW 17:04:20 71° W 17:08:14 10° N
Sich 1 3.4 17:00:46 10° NNW 17:05:08 66° W 17:09:27 10° S
Okean O Rocket 3.3 17:03:58 10° SSW 17:07:58 36° W 17:12:00 10° NNW
DEBRIS 4.3 16:52:01 10° W 17:08:54 70° N 17:11:14 34° ENE
Helios 1A Rocket 3.0 17:07:32 29° SE 17:09:14 48° ENE 17:13:07 10° N
Cosmos 1782 4.4 17:06:04 10° SSE 17:07:36 20° SE 17:07:36 20° SE
Cosmos 2366 rocket 3.9 17:03:46 10° N 17:09:58 65° E 17:16:04 10° SSE
Cosmos 2333 Rocket 4.2 17:05:44 10° W 17:10:12 23° NW 17:14:42 10° N
ISS -3.5 17:09:54 10° WSW 17:13:14 58° NNW 17:13:33 54° N
Cosmos 1356 4.2 17:11:34 10° NNW 17:14:55 51° W 17:18:14 10° S
Feng Yun 1-1 Rocket 4.5 17:09:49 10° S 17:15:38 75° WSW 17:21:21 10° NNW
Meteor 1-20 Rocket 4.2 17:10:34 10° N 17:16:27 84° E 17:22:18 10° SSE
SAR-Lupe-4 3.4 17:15:58 45° NNE 17:17:00 87° ESE 17:20:35 10° SSW
CZ-4B R/B 2.6 17:17:16 17° NNW 17:19:12 37° WNW 17:22:05 10° SW
SKYMED 3 4.5 17:16:26 16° NNE 17:19:53 87° WNW 17:24:14 10° SSW
Cosmos 2278 Rocket 4.2 17:16:35 10° NW 17:21:27 30° WSW 17:26:19 10° SSW
Cosmos 1151 Rocket 2.8 17:17:15 10° S 17:21:32 78° E 17:23:24 33° NNE
Cosmos 1666 Rocket 3.8 17:17:55 10° NNW 17:22:17 69° W 17:26:41 10° S
IRS-1C Rocket 4.2 17:19:48 10° S 17:25:04 77° WSW 17:30:23 10° NNW
USA 267 3.2 17:21:44 25° ESE 17:25:53 85° NE 17:32:27 10° NW
Cosmos 1328 Rocket 3.3 17:23:08 10° S 17:27:26 79° E 17:28:37 47° NNE
Lacrosse 5 rocket 2.3 17:25:50 10° SSW 17:28:08 31° S 17:28:08 31° S
ERS-2 3.6 17:29:45 14° N 17:32:28 37° WNW 17:35:51 10° SW
SAR-Lupe-1 4.5 17:33:31 51° NNW 17:34:08 61° WNW 17:37:41 10° SSW
EO 1 Delta rocket 4.3 17:28:59 10° N 17:34:14 89° ESE 17:40:49 10° S
SL-24 R/B 4.0 17:32:46 36° N 17:34:20 73° WNW 17:38:06 10° SSW
CZ-2D R/B 3.7 17:31:05 10° S 17:34:50 60° W 17:38:39 10° NNW
Meteor 1-25 Rocket 4.4 17:29:36 10° NNW 17:35:12 73° W 17:40:50 10° S
CSL-04 Debris 4.1 17:36:09 47° ESE 17:37:28 60° ENE 17:42:53 10° N
CZ-4 R/B 1.3 17:38:23 74° NW 17:38:23 74° NW 17:42:04 10° NNW
SKYMED 2 4.4 17:40:45 17° N 17:43:52 49° WNW 17:48:03 10° SW
CZ-3B R/B 4.0 17:42:03 10° SSW 17:42:21 12° SSW 17:42:21 12° SSW
SL-24 DEB 4.4 17:42:45 10° N 17:47:31 74° W 17:52:13 10° SSW
Cosmos 2285 Rocket 4.2 17:43:29 10° NNW 17:49:53 73° WSW 17:56:12 10° S
Cosmos 2237 Rocket 3.7 17:45:18 10° WSW 17:50:19 32° NW 17:54:26 14° N
Cosmos 1633 Rocket 4.4 17:48:49 10° NNW 17:52:55 39° W 17:56:58 10° SSW
H-2A R/B 1.9 17:52:26 59° SSE 17:53:28 85° ENE 17:58:44 10° NNW
Cosmos 773 Rocket 4.0 17:53:37 10° SSW 17:58:52 80° WNW 17:59:15 75° NNW
USA 281 3.7 17:54:41 10° S 18:01:08 59° WSW 18:07:38 10° NNW
CSL-04 Rocket 3.6 18:01:44 75° N 18:01:44 75° N 18:06:38 10° NNW
Cosmos 2369 Rocket 2.7 17:57:57 10° NNW 18:02:10 47° N 18:02:10 47° N
MOS 1 Rocket 3.7 18:03:47 47° N 18:05:21 74° WNW 18:10:46 10° SSW
Cosmos 1821 Rocket 4.0 18:06:09 10° N 18:11:29 67° N 18:11:29 67° N
YAOGAN 1 4.1 18:21:23 35° W 18:21:23 35° W 18:25:07 10° NNW
Cosmos 1943 Rocket 2.9 18:26:36 10° NW 18:31:41 50° W 18:31:41 50° W
USA 215 3.8 18:35:13 47° N 18:35:39 48° NNW 18:41:52 10° W
SL-16 R/B 3.5 18:32:56 10° WSW 18:38:06 36° NW 18:38:47 35° NW
